Location: Vaughan
(31.9146°N, 97.1736°W)
Time: 02:18:13
(UTC+00:00)

OceanSat 1 rocket - Pass Details

Date: 10 December 2025
Orbit: 688 x 726 km, 98.6° (Epoch: 17 January)

Event Time Altitude Azimuth Distance (km) Brightness Sun altitude
Rises 01:09:48 0° 161° (SSE) 3,094 7.9 -21.7°
Reaches altitude 10° 01:12:04 10° 160° (SSE) 2,173 7.1 -22.2°
Maximum altitude 01:16:48 74° 76° (ENE) 733 4.4 -23.1°
Drops below altitude 10° 01:21:32 10° 351° (N) 2,162 7.1 -24.1°
Sets 01:23:46 0° 350° (N) 3,078 7.9 -24.6°
